DAL1980 SBKP-SBPA

Flight info

Callsign DAL1980
Flight time 1h 25m
Altitude 30000
Route ASETA UL301 UKLEN UN741 EGBUG TR VUKMO
Aircraft B772/H-B772/2000

Departure

Time 2026-05-04 19:43
Airport Viracopos International Airport (SBKP)

Arrival

Time 2026-05-04 21:08
Airport Porto Alegre-Salgado Filho International Airport (SBPA)
Time Latitude Longitude Altitude Speed Heading
2026-05-04 19:39 -23.00629 -47.14994 2183 ft 3 kts 218°
2026-05-04 19:40 -23.00613 -47.14980 2183 ft 3 kts 218°
2026-05-04 19:40 -23.00599 -47.14968 2183 ft 1 kts 218°
2026-05-04 19:40 -23.00582 -47.15034 2183 ft 19 kts 316°
2026-05-04 19:40 -23.00484 -47.15155 2183 ft 20 kts 319°
2026-05-04 19:41 -23.00344 -47.15145 2183 ft 27 kts 41°
2026-05-04 19:41 -23.00161 -47.14994 2183 ft 39 kts 37°
2026-05-04 19:41 -22.99983 -47.14828 2183 ft 19 kts 46°
2026-05-04 19:41 -22.99898 -47.14698 2183 ft 27 kts 76°
2026-05-04 19:42 -23.00007 -47.14475 2183 ft 67 kts 127°
2026-05-04 19:42 -23.00449 -47.13851 2184 ft 140 kts 128°
2026-05-04 19:42 -23.01185 -47.12820 2184 ft 205 kts 127°
2026-05-04 19:42 -23.02128 -47.11474 2709 ft 225 kts 127°
2026-05-04 19:43 -23.03115 -47.10039 3490 ft 253 kts 125°
2026-05-04 19:43 -23.04218 -47.08360 4058 ft 292 kts 123°
2026-05-04 19:43 -23.05423 -47.06403 4807 ft 326 kts 123°
2026-05-04 19:43 -23.06771 -47.04398 6097 ft 339 kts 129°
2026-05-04 19:44 -23.08517 -47.02601 7272 ft 356 kts 144°
2026-05-04 19:44 -23.10675 -47.01155 8280 ft 371 kts 149°
2026-05-04 19:44 -23.12874 -46.99663 9795 ft 371 kts 148°
2026-05-04 19:44 -23.15039 -46.98094 11145 ft 379 kts 147°
2026-05-04 19:45 -23.17282 -46.96468 12006 ft 397 kts 148°
2026-05-04 19:45 -23.19657 -46.94792 12737 ft 414 kts 149°
2026-05-04 19:45 -23.22096 -46.93133 14071 ft 414 kts 150°
2026-05-04 19:45 -23.24546 -46.91474 14880 ft 414 kts 150°
2026-05-04 19:46 -23.26990 -46.89817 15474 ft 415 kts 150°
2026-05-04 19:46 -23.29459 -46.88141 15970 ft 419 kts 150°
2026-05-04 19:46 -23.31910 -46.86475 16425 ft 423 kts 150°
2026-05-04 19:46 -23.34429 -46.84763 16888 ft 427 kts 150°
2026-05-04 19:47 -23.36957 -46.83050 17366 ft 429 kts 151°
2026-05-04 19:47 -23.39500 -46.81327 17829 ft 432 kts 151°
2026-05-04 19:47 -23.42066 -46.79582 18278 ft 435 kts 150°
2026-05-04 19:47 -23.44639 -46.77829 18713 ft 437 kts 150°
2026-05-04 19:48 -23.47230 -46.76062 19135 ft 440 kts 151°
2026-05-04 19:48 -23.49832 -46.74286 19546 ft 442 kts 150°
2026-05-04 19:48 -23.52409 -46.72526 19939 ft 445 kts 151°
2026-05-04 19:48 -23.55108 -46.70870 20296 ft 442 kts 160°
2026-05-04 19:49 -23.58044 -46.69994 20631 ft 437 kts 176°
2026-05-04 19:49 -23.61057 -46.70078 20965 ft 431 kts 193°
2026-05-04 19:49 -23.63889 -46.71112 21300 ft 427 kts 209°
2026-05-04 19:49 -23.66306 -46.72962 21633 ft 425 kts 223°
2026-05-04 19:50 -23.68406 -46.75238 22004 ft 426 kts 227°
2026-05-04 19:50 -23.70349 -46.77681 22397 ft 425 kts 232°
2026-05-04 19:50 -23.72148 -46.80241 22791 ft 425 kts 234°
2026-05-04 19:50 -23.73895 -46.82850 23160 ft 426 kts 235°
2026-05-04 19:51 -23.75616 -46.85501 23517 ft 427 kts 235°
2026-05-04 19:51 -23.77317 -46.88163 23874 ft 428 kts 236°
2026-05-04 19:51 -23.78999 -46.90803 24215 ft 429 kts 236°
2026-05-04 19:51 -23.80705 -46.93481 24556 ft 429 kts 236°
2026-05-04 19:52 -23.82415 -46.96168 24887 ft 430 kts 236°
2026-05-04 19:52 -23.84124 -46.98853 25207 ft 431 kts 236°
2026-05-04 19:52 -23.85841 -47.01551 25526 ft 432 kts 236°
2026-05-04 19:52 -23.87535 -47.04216 25830 ft 433 kts 236°
2026-05-04 19:53 -23.89256 -47.06922 26132 ft 433 kts 236°
2026-05-04 19:53 -23.90979 -47.09635 26435 ft 434 kts 236°
2026-05-04 19:53 -23.92700 -47.12347 26726 ft 435 kts 236°
2026-05-04 19:53 -23.94430 -47.15072 27013 ft 436 kts 236°
2026-05-04 19:54 -23.96161 -47.17802 27285 ft 437 kts 236°
2026-05-04 19:54 -23.97899 -47.20545 27523 ft 438 kts 236°
2026-05-04 19:54 -23.99636 -47.23286 27765 ft 440 kts 236°
2026-05-04 19:54 -24.01359 -47.26007 27997 ft 441 kts 236°
2026-05-04 19:55 -24.03111 -47.28776 28225 ft 442 kts 236°
2026-05-04 19:55 -24.04867 -47.31553 28448 ft 443 kts 236°
2026-05-04 19:55 -24.06624 -47.34333 28663 ft 445 kts 236°
2026-05-04 19:55 -24.08386 -47.37122 28871 ft 446 kts 236°
2026-05-04 19:56 -24.10154 -47.39922 29073 ft 447 kts 236°
2026-05-04 19:56 -24.11927 -47.42732 29272 ft 448 kts 236°
2026-05-04 19:56 -24.13680 -47.45515 29465 ft 450 kts 237°
2026-05-04 19:56 -24.15460 -47.48340 29697 ft 450 kts 237°
2026-05-04 19:57 -24.17237 -47.51162 30025 ft 448 kts 237°
2026-05-04 19:57 -24.19002 -47.53967 30160 ft 448 kts 237°
2026-05-04 19:57 -24.20752 -47.56749 30172 ft 434 kts 237°
2026-05-04 19:57 -24.22421 -47.59402 30168 ft 420 kts 237°
2026-05-04 19:58 -24.24058 -47.62007 30168 ft 409 kts 237°
2026-05-04 19:58 -24.27243 -47.67078 30170 ft 398 kts 237°
2026-05-04 19:59 -24.30374 -47.72068 30172 ft 401 kts 237°
2026-05-04 19:59 -24.33537 -47.77114 30171 ft 401 kts 237°
2026-05-04 20:00 -24.36703 -47.82171 30171 ft 401 kts 237°
2026-05-04 20:00 -24.39843 -47.87190 30171 ft 401 kts 237°
2026-05-04 20:01 -24.42999 -47.92241 30171 ft 401 kts 237°
2026-05-04 20:01 -24.46156 -47.97298 30171 ft 401 kts 237°
2026-05-04 20:02 -24.49291 -48.02325 30171 ft 401 kts 237°
2026-05-04 20:02 -24.52444 -48.07386 30171 ft 401 kts 237°
2026-05-04 20:03 -24.55580 -48.12426 30171 ft 401 kts 237°
2026-05-04 20:03 -24.58727 -48.17488 30171 ft 401 kts 237°
2026-05-04 20:04 -24.61878 -48.22563 30171 ft 401 kts 237°
2026-05-04 20:04 -24.65005 -48.27603 30171 ft 401 kts 237°
2026-05-04 20:05 -24.68149 -48.32675 30171 ft 401 kts 237°
2026-05-04 20:05 -24.71292 -48.37752 30171 ft 401 kts 237°
2026-05-04 20:06 -24.73901 -48.41971 30171 ft 401 kts 237°
2026-05-04 20:06 -24.77568 -48.47907 30171 ft 401 kts 237°
2026-05-04 20:07 -24.80173 -48.52128 30171 ft 401 kts 237°
2026-05-04 20:07 -24.83308 -48.57211 30171 ft 401 kts 237°
2026-05-04 20:08 -24.86441 -48.62297 30171 ft 401 kts 237°
2026-05-04 20:08 -24.89570 -48.67384 30171 ft 401 kts 237°
2026-05-04 20:09 -24.92699 -48.72473 30171 ft 401 kts 237°
2026-05-04 20:09 -24.95815 -48.77548 30171 ft 401 kts 237°
2026-05-04 20:10 -24.98927 -48.82622 30171 ft 401 kts 237°
2026-05-04 20:10 -25.02054 -48.87726 30171 ft 401 kts 237°
2026-05-04 20:11 -25.05178 -48.92830 30171 ft 401 kts 237°
2026-05-04 20:11 -25.08285 -48.97911 30171 ft 401 kts 237°
2026-05-04 20:12 -25.11405 -49.03020 30171 ft 401 kts 237°
2026-05-04 20:12 -25.14523 -49.08130 30171 ft 401 kts 237°
2026-05-04 20:13 -25.17637 -49.13241 30171 ft 401 kts 237°
2026-05-04 20:13 -25.20733 -49.18325 30171 ft 401 kts 237°
2026-05-04 20:14 -25.23851 -49.23453 30171 ft 401 kts 237°
2026-05-04 20:14 -25.26961 -49.28572 30171 ft 401 kts 237°
2026-05-04 20:15 -25.30068 -49.33694 30199 ft 403 kts 237°
2026-05-04 20:15 -25.33184 -49.38833 30201 ft 405 kts 237°
2026-05-04 20:16 -25.36322 -49.44014 30200 ft 404 kts 237°
2026-05-04 20:16 -25.39456 -49.49196 30201 ft 404 kts 237°
2026-05-04 20:17 -25.42586 -49.54376 30201 ft 404 kts 237°
2026-05-04 20:17 -25.45698 -49.59531 30200 ft 404 kts 237°
2026-05-04 20:18 -25.48824 -49.64716 30201 ft 404 kts 237°
2026-05-04 20:18 -25.51950 -49.69906 30201 ft 404 kts 237°
2026-05-04 20:19 -25.55072 -49.75095 30200 ft 404 kts 237°
2026-05-04 20:19 -25.58176 -49.80259 30201 ft 404 kts 237°
2026-05-04 20:20 -25.61297 -49.85458 30201 ft 404 kts 237°
2026-05-04 20:20 -25.64396 -49.90626 30200 ft 404 kts 237°
2026-05-04 20:21 -25.67535 -49.95814 30201 ft 405 kts 236°
2026-05-04 20:21 -25.72237 -50.03598 30201 ft 404 kts 237°
2026-05-04 20:22 -25.75349 -50.08801 30200 ft 404 kts 237°
2026-05-04 20:22 -25.78441 -50.13975 30200 ft 404 kts 237°
2026-05-04 20:23 -25.81553 -50.19180 30201 ft 404 kts 237°
2026-05-04 20:23 -25.83335 -50.21605 30198 ft 407 kts 223°
2026-05-04 20:23 -25.85736 -50.23328 30207 ft 415 kts 206°
2026-05-04 20:24 -25.88550 -50.24172 30204 ft 426 kts 192°
2026-05-04 20:24 -25.91525 -50.24352 30202 ft 430 kts 185°
2026-05-04 20:24 -25.97527 -50.24209 30202 ft 431 kts 185°
2026-05-04 20:25 -26.03474 -50.24171 30201 ft 429 kts 186°
2026-05-04 20:25 -26.09455 -50.24318 30201 ft 429 kts 187°
2026-05-04 20:26 -26.15427 -50.24544 30200 ft 428 kts 188°
2026-05-04 20:26 -26.21389 -50.24783 30201 ft 428 kts 188°
2026-05-04 20:27 -26.27350 -50.25026 30201 ft 428 kts 188°
2026-05-04 20:27 -26.33276 -50.25270 30200 ft 428 kts 188°
2026-05-04 20:28 -26.39241 -50.25517 30201 ft 428 kts 188°
2026-05-04 20:28 -26.45206 -50.25765 30201 ft 428 kts 188°
2026-05-04 20:29 -26.51134 -50.26011 30200 ft 428 kts 188°
2026-05-04 20:29 -26.57095 -50.26259 30201 ft 428 kts 188°
2026-05-04 20:30 -26.63070 -50.26508 30201 ft 428 kts 188°
2026-05-04 20:30 -26.68998 -50.26755 30200 ft 428 kts 188°
2026-05-04 20:31 -26.74965 -50.27005 30200 ft 428 kts 188°
2026-05-04 20:31 -26.80928 -50.27254 30201 ft 428 kts 188°
2026-05-04 20:32 -26.86892 -50.27504 30201 ft 428 kts 188°
2026-05-04 20:32 -26.92808 -50.27751 30200 ft 428 kts 188°
2026-05-04 20:33 -26.98787 -50.28002 30201 ft 428 kts 188°
2026-05-04 20:33 -27.04720 -50.28251 30201 ft 428 kts 188°
2026-05-04 20:34 -27.10686 -50.28502 30200 ft 428 kts 188°
2026-05-04 20:34 -27.16647 -50.28753 30201 ft 428 kts 188°
2026-05-04 20:35 -27.22562 -50.29002 30137 ft 426 kts 188°
2026-05-04 20:35 -27.28435 -50.29250 30113 ft 420 kts 188°
2026-05-04 20:36 -27.34310 -50.29498 30112 ft 422 kts 188°
2026-05-04 20:36 -27.40157 -50.29745 30112 ft 422 kts 188°
2026-05-04 20:37 -27.46031 -50.29993 30112 ft 422 kts 188°
2026-05-04 20:37 -27.51904 -50.30242 30112 ft 422 kts 188°
2026-05-04 20:38 -27.57782 -50.30491 30112 ft 422 kts 188°
2026-05-04 20:38 -27.63627 -50.30739 30112 ft 422 kts 188°
2026-05-04 20:39 -27.69496 -50.30988 30112 ft 422 kts 188°
2026-05-04 20:39 -27.75337 -50.31237 30112 ft 422 kts 188°
2026-05-04 20:40 -27.81214 -50.31487 30112 ft 422 kts 188°
2026-05-04 20:40 -27.87095 -50.31737 30112 ft 422 kts 188°
2026-05-04 20:41 -27.92942 -50.31987 30112 ft 422 kts 188°
2026-05-04 20:41 -27.98825 -50.32238 30112 ft 422 kts 188°
2026-05-04 20:42 -28.04676 -50.32488 30112 ft 422 kts 188°
2026-05-04 20:42 -28.10544 -50.32739 30112 ft 422 kts 188°
2026-05-04 20:43 -28.16417 -50.32991 30112 ft 422 kts 188°
2026-05-04 20:43 -28.22255 -50.33241 30112 ft 422 kts 188°
2026-05-04 20:44 -28.28125 -50.33494 30112 ft 422 kts 188°
2026-05-04 20:44 -28.33992 -50.33746 30112 ft 422 kts 188°
2026-05-04 20:45 -28.39881 -50.33999 30112 ft 422 kts 188°
2026-05-04 20:45 -28.45745 -50.34251 29925 ft 432 kts 188°
2026-05-04 20:46 -28.51846 -50.34514 29901 ft 444 kts 188°
2026-05-04 20:46 -28.57998 -50.34780 29734 ft 436 kts 188°
2026-05-04 20:47 -28.61022 -50.34911 29329 ft 432 kts 188°
2026-05-04 20:47 -28.63983 -50.35039 28912 ft 429 kts 188°
2026-05-04 20:47 -28.66958 -50.35168 28487 ft 426 kts 188°
2026-05-04 20:47 -28.69883 -50.35431 28064 ft 416 kts 195°
2026-05-04 20:48 -28.72642 -50.36316 27652 ft 405 kts 207°
2026-05-04 20:48 -28.75146 -50.37733 27199 ft 399 kts 214°
2026-05-04 20:48 -28.77449 -50.39398 26770 ft 395 kts 218°
2026-05-04 20:48 -28.79672 -50.41231 26344 ft 392 kts 220°
2026-05-04 20:49 -28.81823 -50.43128 25923 ft 390 kts 221°
2026-05-04 20:49 -28.83960 -50.45029 25503 ft 388 kts 220°
2026-05-04 20:49 -28.86101 -50.46904 25084 ft 387 kts 220°
2026-05-04 20:49 -28.88251 -50.48751 24667 ft 386 kts 220°
2026-05-04 20:50 -28.90401 -50.50581 24250 ft 384 kts 220°
2026-05-04 20:50 -28.92542 -50.52410 23832 ft 383 kts 220°
2026-05-04 20:50 -28.94642 -50.54207 23423 ft 382 kts 220°
2026-05-04 20:50 -28.96759 -50.56023 23009 ft 381 kts 220°
2026-05-04 20:51 -28.98883 -50.57846 22592 ft 380 kts 220°
2026-05-04 20:51 -29.00996 -50.59660 22177 ft 379 kts 220°
2026-05-04 20:51 -29.03102 -50.61469 21760 ft 378 kts 219°
2026-05-04 20:51 -29.04498 -50.62669 21487 ft 378 kts 219°
2026-05-04 20:52 -29.07287 -50.65067 20933 ft 377 kts 219°
2026-05-04 20:52 -29.09382 -50.66867 20515 ft 377 kts 219°
2026-05-04 20:52 -29.10765 -50.68079 20235 ft 376 kts 221°
2026-05-04 20:52 -29.12714 -50.70069 19814 ft 375 kts 226°
2026-05-04 20:53 -29.14536 -50.72195 19390 ft 374 kts 228°
2026-05-04 20:53 -29.16292 -50.74392 18966 ft 374 kts 230°
2026-05-04 20:53 -29.18018 -50.76629 18538 ft 374 kts 230°
2026-05-04 20:53 -29.20295 -50.79606 17969 ft 375 kts 230°
2026-05-04 20:54 -29.21439 -50.81101 17683 ft 375 kts 230°
2026-05-04 20:54 -29.23167 -50.83358 17252 ft 376 kts 230°
2026-05-04 20:54 -29.24889 -50.85608 16821 ft 376 kts 231°
2026-05-04 20:54 -29.26621 -50.87871 16402 ft 376 kts 231°
2026-05-04 20:55 -29.28334 -50.90110 16200 ft 371 kts 231°
2026-05-04 20:55 -29.30019 -50.92312 16009 ft 365 kts 231°
2026-05-04 20:55 -29.31667 -50.94468 15812 ft 360 kts 231°
2026-05-04 20:55 -29.33312 -50.96619 15623 ft 356 kts 231°
2026-05-04 20:56 -29.34938 -50.98745 15362 ft 353 kts 231°
2026-05-04 20:56 -29.36547 -51.00848 15177 ft 348 kts 232°
2026-05-04 20:56 -29.38132 -51.02921 14957 ft 345 kts 231°
2026-05-04 20:56 -29.39727 -51.04990 14392 ft 349 kts 231°
2026-05-04 20:57 -29.41326 -51.07059 13789 ft 353 kts 231°
2026-05-04 20:57 -29.42970 -51.09170 13238 ft 354 kts 232°
2026-05-04 20:57 -29.44609 -51.11286 12689 ft 355 kts 232°
2026-05-04 20:57 -29.46257 -51.13423 12133 ft 357 kts 232°
2026-05-04 20:58 -29.47901 -51.15562 11576 ft 358 kts 232°
2026-05-04 20:58 -29.49555 -51.17717 11016 ft 359 kts 233°
2026-05-04 20:58 -29.51206 -51.19870 10453 ft 361 kts 233°
2026-05-04 20:58 -29.52849 -51.22015 9897 ft 362 kts 233°
2026-05-04 20:59 -29.54488 -51.24156 9338 ft 351 kts 233°
2026-05-04 20:59 -29.56079 -51.26234 8799 ft 340 kts 233°
2026-05-04 20:59 -29.57620 -51.28247 8275 ft 330 kts 233°
2026-05-04 20:59 -29.59119 -51.30205 7764 ft 321 kts 233°
2026-05-04 21:00 -29.60665 -51.32013 7269 ft 316 kts 224°
2026-05-04 21:00 -29.62487 -51.33398 6829 ft 310 kts 215°
2026-05-04 21:00 -29.64190 -51.34716 6724 ft 288 kts 222°
2026-05-04 21:00 -29.65832 -51.35992 6301 ft 284 kts 212°
2026-05-04 21:01 -29.67662 -51.36817 6044 ft 276 kts 203°
2026-05-04 21:01 -29.69500 -51.37445 5751 ft 277 kts 200°
2026-05-04 21:01 -29.71348 -51.37973 5640 ft 277 kts 197°
2026-05-04 21:01 -29.73247 -51.38378 5460 ft 281 kts 194°
2026-05-04 21:02 -29.75186 -51.38699 5252 ft 280 kts 192°
2026-05-04 21:02 -29.77110 -51.39002 5040 ft 280 kts 192°
2026-05-04 21:02 -29.79053 -51.39325 4822 ft 282 kts 193°
2026-05-04 21:02 -29.80980 -51.39659 4607 ft 279 kts 193°
2026-05-04 21:03 -29.82889 -51.39997 4397 ft 276 kts 193°
2026-05-04 21:03 -29.84790 -51.40335 4166 ft 276 kts 193°
2026-05-04 21:03 -29.86691 -51.40673 3951 ft 276 kts 193°
2026-05-04 21:03 -29.88598 -51.40949 3757 ft 277 kts 189°
2026-05-04 21:04 -29.90541 -51.40951 3534 ft 283 kts 177°
2026-05-04 21:04 -29.92454 -51.40434 3343 ft 284 kts 166°
2026-05-04 21:04 -29.94295 -51.39675 3129 ft 284 kts 163°
2026-05-04 21:04 -29.96119 -51.38805 2895 ft 284 kts 154°
2026-05-04 21:05 -29.97752 -51.37535 2689 ft 284 kts 143°
2026-05-04 21:05 -29.99142 -51.35928 2464 ft 284 kts 126°
2026-05-04 21:05 -29.99876 -51.33829 2110 ft 281 kts 98°
2026-05-04 21:05 -29.99813 -51.31633 2130 ft 269 kts 83°
2026-05-04 21:06 -29.99554 -51.29485 2080 ft 268 kts 80°
2026-05-04 21:06 -29.99334 -51.27394 1954 ft 253 kts 84°
2026-05-04 21:06 -29.99273 -51.25427 1597 ft 238 kts 88°
2026-05-04 21:06 -29.99326 -51.23580 1238 ft 224 kts 90°
2026-05-04 21:07 -29.99366 -51.21836 834 ft 211 kts 90°
2026-05-04 21:07 -29.99400 -51.20174 390 ft 200 kts 90°
2026-05-04 21:07 -29.99430 -51.18656 104 ft 181 kts 89°
2026-05-04 21:07 -29.99455 -51.17362 25 ft 106 kts 89°
2026-05-04 21:08 -29.99468 -51.16790 24 ft 23 kts 77°
2026-05-04 21:08 -29.99396 -51.16742 24 ft 21 kts 10°
2026-05-04 21:08 -29.99287 -51.16786 24 ft 16 kts 300°